Location: Gandikunta
(16.3784°N, 80.8378°E)
Time: 00:02:45
(UTC+00:00)

GOES 2 Rocket - Pass Details

Date: 19 May 2025
Orbit: 568 x 1660 km, 28.4° (Epoch: 18 June)

Event Time Altitude Azimuth Distance (km) Brightness Sun altitude
Exits shadow 23:11:27 19° 240° (WSW) 1,404 4.2 -12.6°
Maximum altitude 23:14:27 81° 156° (SSE) 627 3.1 -12.0°
Drops below altitude 10° 23:19:24 10° 67° (ENE) 2,183 7.5 -10.9°
Sets 23:22:07 0° 66° (ENE) 3,253 9.1 -10.3°
